^^
Station Historical Data
Daily Summary for June 2, 2017 Units:  English    Metric   Both
« Previous Day
Next Day »
Daily Weekly Monthly Yearly Custom
  High: Low: Average:
Temperature: 76.3 °F 50.1 °F 65 °F
Dew Point: 49.3 °F 36.8 °F 44.2 °F
Humidity: 86 % 26 % 51 %
Wind Speed: 16.6 mph 0.0 mph 3.1 mph
Wind Gust: 28.8 mph - -
Wind:- - WNW
Pressure: 30.01 in 29.92 in -
Precipitation: 0.00 in    
Historical Graphs
 
 
Tabular Data for June 2, 2017
Time Temperature Dew Point Pressure Wind Wind Speed Wind Gust Humidity Rainfall Rate (Hourly) solar Conditions
00:03 63.0 °F 48.4 °F 29.98 in SW 0.8 mph 3.5 mph 59 % 0.00 in 0.0 W/m2 RA
00:08 63.1 °F 48.5 °F 29.98 in Calm   3.5 mph 59 % 0.00 in 0.0 W/m2 RA
00:13 63.0 °F 48.9 °F 29.98 in Calm   3.5 mph 60 % 0.00 in 0.0 W/m2 FEW
00:18 63.0 °F 48.0 °F 29.98 in Calm     58 % 0.00 in 0.0 W/m2 FEW
00:23 63.0 °F 48.4 °F 29.99 in Calm     59 % 0.00 in 0.0 W/m2 FEW
00:28 62.6 °F 48.1 °F 29.99 in Calm   1.2 mph 59 % 0.00 in 0.0 W/m2 FEW
00:33 62.3 °F 48.2 °F 29.99 in Calm   1.2 mph 60 % 0.00 in 0.0 W/m2 FEW
00:38 62.3 °F 48.2 °F 29.99 in Calm   4.6 mph 60 % 0.00 in 0.0 W/m2 FEW
00:43 62.5 °F 48.0 °F 29.99 in Calm   4.6 mph 59 % 0.00 in 0.0 W/m2 FEW
00:48 62.4 °F 48.3 °F 29.99 in Calm   1.2 mph 60 % 0.00 in 0.0 W/m2 FEW
00:53 62.2 °F 48.1 °F 29.99 in Calm   1.2 mph 60 % 0.00 in 0.0 W/m2 FEW
00:58 61.8 °F 47.8 °F 29.99 in Calm     60 % 0.00 in 0.0 W/m2 FEW
01:03 61.6 °F 47.6 °F 29.99 in Calm     60 % 0.00 in 0.0 W/m2 CLR
01:05 61.5 °F 47.5 °F 29.99 in Calm     60 % 0.00 in 0.0 W/m2 CLR
01:10 61.3 °F 47.3 °F 29.99 in Calm     60 % 0.00 in 0.0 W/m2 CLR
01:15 61.1 °F 47.1 °F 29.99 in Calm     60 % 0.00 in 0.0 W/m2 CLR
01:20 60.9 °F 46.9 °F 29.99 in Calm     60 % 0.00 in 0.0 W/m2 CLR
01:25 60.8 °F 46.4 °F 29.99 in Calm     59 % 0.00 in 0.0 W/m2 CLR
01:30 60.4 °F 47.3 °F 29.99 in Calm     62 % 0.00 in 0.0 W/m2 CLR
01:35 59.6 °F 47.4 °F 29.99 in Calm     64 % 0.00 in 0.0 W/m2 CLR
01:40 59.0 °F 47.7 °F 29.99 in Calm     66 % 0.00 in 0.0 W/m2 CLR
01:45 58.6 °F 47.7 °F 29.99 in Calm     67 % 0.00 in 0.0 W/m2 CLR
01:50 58.2 °F 47.7 °F 29.99 in Calm     68 % 0.00 in 0.0 W/m2 CLR
01:55 57.8 °F 47.7 °F 29.99 in Calm     69 % 0.00 in 0.0 W/m2 CLR
02:00 57.9 °F 47.8 °F 29.99 in Calm     69 % 0.00 in 0.0 W/m2 CLR
02:05 57.6 °F 47.5 °F 29.99 in Calm     69 % 0.00 in 0.0 W/m2 CLR
02:10 57.5 °F 47.8 °F 29.99 in Calm     70 % 0.00 in 0.0 W/m2 CLR
02:15 57.5 °F 47.4 °F 29.99 in Calm     69 % 0.00 in 0.0 W/m2 CLR
02:20 57.5 °F 47.8 °F 29.99 in Calm     70 % 0.00 in 0.0 W/m2 CLR
02:25 57.3 °F 48.0 °F 29.99 in Calm     71 % 0.00 in 0.0 W/m2 CLR
02:30 57.0 °F 47.7 °F 29.99 in Calm     71 % 0.00 in 0.0 W/m2 CLR
02:35 56.6 °F 47.3 °F 29.99 in Calm     71 % 0.00 in 0.0 W/m2 CLR
02:40 56.5 °F 47.2 °F 29.99 in Calm     71 % 0.00 in 0.0 W/m2 CLR
02:45 56.2 °F 47.3 °F 29.99 in Calm     72 % 0.00 in 0.0 W/m2 CLR
02:50 55.8 °F 47.3 °F 29.99 in Calm     73 % 0.00 in 0.0 W/m2 CLR
02:55 55.0 °F 47.2 °F 29.99 in Calm     75 % 0.00 in 0.0 W/m2 CLR
03:00 55.0 °F 47.6 °F 29.99 in Calm     76 % 0.00 in 0.0 W/m2 CLR
03:05 54.7 °F 47.6 °F 29.99 in Calm     77 % 0.00 in 0.0 W/m2 CLR
03:10 54.4 °F 47.3 °F 29.99 in Calm     77 % 0.00 in 0.0 W/m2 CLR
03:15 54.3 °F 47.2 °F 29.98 in Calm     77 % 0.00 in 0.0 W/m2 CLR
03:20 54.4 °F 47.3 °F 29.99 in Calm     77 % 0.00 in 0.0 W/m2 CLR
03:25 54.5 °F 47.4 °F 29.99 in Calm     77 % 0.00 in 0.0 W/m2 CLR
03:30 54.2 °F 47.1 °F 29.99 in Calm     77 % 0.00 in 0.0 W/m2 CLR
03:35 53.8 °F 47.1 °F 29.98 in Calm     78 % 0.00 in 0.0 W/m2 CLR
03:40 53.7 °F 47.3 °F 29.98 in Calm     79 % 0.00 in 0.0 W/m2 CLR
03:45 53.4 °F 47.4 °F 29.98 in Calm     80 % 0.00 in 0.0 W/m2 CLR
03:50 53.3 °F 47.3 °F 29.98 in Calm     80 % 0.00 in 0.0 W/m2 CLR
03:55 53.0 °F 47.3 °F 29.99 in Calm     81 % 0.00 in 0.0 W/m2 CLR
04:00 52.8 °F 47.1 °F 29.99 in Calm     81 % 0.00 in 0.0 W/m2 CLR
04:05 52.5 °F 46.8 °F 29.99 in Calm     81 % 0.00 in 0.0 W/m2 CLR
04:10 52.3 °F 47.0 °F 29.99 in Calm     82 % 0.00 in 0.0 W/m2 CLR
04:15 52.2 °F 46.9 °F 29.98 in Calm     82 % 0.00 in 0.0 W/m2 CLR
04:20 52.1 °F 46.8 °F 29.98 in Calm     82 % 0.00 in 0.0 W/m2 CLR
04:25 52.3 °F 47.3 °F 29.98 in Calm     83 % 0.00 in 0.0 W/m2 CLR
04:31 52.5 °F 47.5 °F 29.99 in Calm     83 % 0.00 in 0.0 W/m2 CLR
04:36 52.4 °F 47.4 °F 29.99 in Calm     83 % 0.00 in 0.0 W/m2 CLR
04:41 51.9 °F 46.9 °F 29.99 in Calm     83 % 0.00 in 0.0 W/m2 CLR
04:46 51.8 °F 47.1 °F 29.99 in Calm     84 % 0.00 in 0.0 W/m2 CLR
04:51 51.5 °F 46.8 °F 29.99 in Calm     84 % 0.00 in 0.0 W/m2 CLR
04:56 51.3 °F 46.6 °F 29.99 in Calm     84 % 0.00 in 0.0 W/m2 CLR
05:01 51.2 °F 46.5 °F 29.99 in Calm     84 % 0.00 in 0.0 W/m2 CLR
05:06 51.3 °F 46.9 °F 29.99 in Calm     85 % 0.00 in 0.0 W/m2 CLR
05:11 51.3 °F 46.9 °F 29.99 in Calm     85 % 0.00 in 0.0 W/m2 CLR
05:16 51.6 °F 47.2 °F 29.99 in Calm     85 % 0.00 in 0.0 W/m2 CLR
05:21 51.4 °F 47.0 °F 29.99 in Calm     85 % 0.00 in 0.0 W/m2 CLR
05:26 51.0 °F 46.6 °F 29.99 in Calm     85 % 0.00 in 0.0 W/m2 CLR
05:31 50.8 °F 46.5 °F 29.99 in Calm     85 % 0.00 in 0.0 W/m2 CLR
05:36 50.8 °F 46.5 °F 29.99 in Calm     85 % 0.00 in 0.0 W/m2 CLR
05:41 50.7 °F 46.4 °F 29.99 in Calm     85 % 0.00 in 0.0 W/m2 CLR
05:43 50.6 °F 46.3 °F 29.99 in Calm     85 % 0.00 in 0.0 W/m2 CLR
05:48 50.7 °F 46.4 °F 29.99 in Calm     85 % 0.00 in 5.0 W/m2 CLR
05:53 50.6 °F 46.3 °F 30.00 in Calm     85 % 0.00 in 7.0 W/m2 CLR
05:58 50.2 °F 45.9 °F 30.00 in Calm     85 % 0.00 in 9.0 W/m2 CLR
06:03 50.1 °F 45.8 °F 30.00 in Calm     85 % 0.00 in 11.0 W/m2 CLR
06:08 50.1 °F 46.1 °F 30.00 in Calm     86 % 0.00 in 14.0 W/m2 CLR
06:13 50.1 °F 46.1 °F 30.00 in Calm     86 % 0.00 in 19.0 W/m2 CLR
06:18 50.2 °F 46.2 °F 30.00 in Calm     86 % 0.00 in 26.0 W/m2 CLR
06:23 50.5 °F 46.5 °F 30.00 in Calm     86 % 0.00 in 40.0 W/m2 CLR
06:28 50.9 °F 46.6 °F 30.00 in Calm     85 % 0.00 in 32.0 W/m2 CLR
06:33 51.1 °F 46.7 °F 30.00 in Calm     85 % 0.00 in 35.0 W/m2 CLR
06:38 51.4 °F 47.0 °F 30.00 in Calm     85 % 0.00 in 53.0 W/m2 CLR
06:44 51.9 °F 47.2 °F 30.00 in Calm     84 % 0.00 in 58.0 W/m2 CLR
06:49 52.2 °F 47.5 °F 30.00 in Calm     84 % 0.00 in 60.0 W/m2 CLR
06:54 52.6 °F 47.6 °F 30.00 in Calm     83 % 0.00 in 65.0 W/m2 CLR
06:59 53.2 °F 47.8 °F 30.00 in Calm     82 % 0.00 in 70.0 W/m2 CLR
07:04 54.0 °F 48.3 °F 30.00 in Calm     81 % 0.00 in 109.0 W/m2 CLR
07:09 54.7 °F 48.3 °F 30.00 in Calm     79 % 0.00 in 104.0 W/m2 CLR
07:14 55.2 °F 48.5 °F 30.00 in Calm     78 % 0.00 in 116.0 W/m2 CLR
07:19 55.5 °F 48.4 °F 30.00 in Calm     77 % 0.00 in 107.0 W/m2 CLR
07:24 55.9 °F 48.4 °F 30.00 in Calm     76 % 0.00 in 90.0 W/m2 CLR
07:29 56.4 °F 48.6 °F 30.00 in Calm     75 % 0.00 in 102.0 W/m2 CLR
07:34 56.9 °F 48.7 °F 30.00 in Calm     74 % 0.00 in 86.0 W/m2 CLR
07:39 57.4 °F 48.8 °F 30.00 in Calm     73 % 0.00 in 79.0 W/m2 CLR
07:44 57.9 °F 48.6 °F 30.00 in Calm   2.3 mph 71 % 0.00 in 72.0 W/m2 CLR
07:49 58.2 °F 48.5 °F 30.00 in Calm   2.3 mph 70 % 0.00 in 77.0 W/m2 CLR
07:54 58.8 °F 48.6 °F 30.01 in Calm     69 % 0.00 in 70.0 W/m2 CLR
07:59 59.2 °F 48.2 °F 30.01 in Calm     67 % 0.00 in 58.0 W/m2 CLR
08:04 59.6 °F 48.6 °F 30.01 in Calm     67 % 0.00 in 69.0 W/m2 CLR
08:09 60.1 °F 49.1 °F 30.01 in Calm     67 % 0.00 in 63.0 W/m2 CLR
08:14 60.7 °F 48.9 °F 30.01 in Calm   1.2 mph 65 % 0.00 in 67.0 W/m2 CLR
08:19 61.1 °F 47.5 °F 30.01 in West 0.2 mph 3.5 mph 61 % 0.00 in 114.0 W/m2 CLR
08:21 61.5 °F 47.9 °F 30.01 in Calm   3.5 mph 61 % 0.00 in 81.0 W/m2 CLR
08:27 62.0 °F 47.5 °F 30.01 in West 2.1 mph 3.5 mph 59 % 0.00 in 83.0 W/m2 CLR
08:32 62.1 °F 47.6 °F 30.01 in WSW 2.2 mph 3.5 mph 59 % 0.00 in 118.0 W/m2 CLR
08:37 62.2 °F 48.6 °F 30.01 in SSW 2.6 mph 5.8 mph 61 % 0.00 in 123.0 W/m2 CLR
08:42 62.5 °F 49.3 °F 30.01 in SSW 1.9 mph 5.8 mph 62 % 0.00 in 155.0 W/m2 CLR
08:47 63.0 °F 49.3 °F 30.01 in SW 2.2 mph 5.8 mph 61 % 0.00 in 171.0 W/m2 CLR
08:52 63.2 °F 49.1 °F 30.01 in West 1.8 mph 5.8 mph 60 % 0.00 in 209.0 W/m2 CLR
08:57 64.0 °F 48.9 °F 30.01 in West 0.8 mph 10.4 mph 58 % 0.00 in 192.0 W/m2 CLR
09:07 64.3 °F 48.7 °F 30.01 in SW 2.5 mph 8.1 mph 57 % 0.00 in 271.0 W/m2 CLR
09:12 64.2 °F 48.6 °F 30.01 in SW 4.6 mph 9.2 mph 57 % 0.00 in 390.0 W/m2 CLR
09:17 64.2 °F 48.2 °F 30.01 in WSW 4.3 mph 9.2 mph 56 % 0.00 in 541.0 W/m2 CLR
09:22 64.4 °F 48.8 °F 30.01 in SW 2.4 mph 9.2 mph 57 % 0.00 in 272.0 W/m2 CLR
09:27 64.5 °F 48.4 °F 30.01 in WNW 2.2 mph 8.1 mph 56 % 0.00 in 213.0 W/m2 CLR
09:32 64.3 °F 48.3 °F 30.01 in Calm   8.1 mph 56 % 0.00 in 262.0 W/m2 CLR
09:37 64.3 °F 48.3 °F 30.01 in WSW 0.6 mph 6.9 mph 56 % 0.00 in 265.0 W/m2 CLR
09:42 64.4 °F 48.4 °F 30.01 in Calm   5.8 mph 56 % 0.00 in 336.0 W/m2 CLR
09:47 64.6 °F 48.5 °F 30.01 in WSW 1.8 mph 5.8 mph 56 % 0.00 in 420.0 W/m2 CLR
09:52 65.1 °F 49.0 °F 30.00 in WSW 1.5 mph 6.9 mph 56 % 0.00 in 520.0 W/m2 CLR
09:55 65.6 °F 48.5 °F 30.00 in WNW 2.5 mph 6.9 mph 54 % 0.00 in 568.0 W/m2 CLR
10:00 65.9 °F 49.3 °F 30.00 in SW 3.4 mph 9.2 mph 55 % 0.00 in 318.0 W/m2 CLR
10:06 65.7 °F 48.6 °F 30.00 in WNW 0.9 mph 9.2 mph 54 % 0.00 in 374.0 W/m2 CLR
10:11 66.0 °F 48.9 °F 30.00 in SW 3.1 mph 9.2 mph 54 % 0.00 in 773.0 W/m2 CLR
10:16 67.1 °F 48.9 °F 30.00 in SW 2.0 mph 8.1 mph 52 % 0.00 in 786.0 W/m2 CLR
10:21 68.2 °F 48.3 °F 30.00 in SSW 0.6 mph 8.1 mph 49 % 0.00 in 795.0 W/m2 CLR
10:26 68.2 °F 48.3 °F 30.00 in West 4.3 mph 11.5 mph 49 % 0.00 in 816.0 W/m2 CLR
10:31 68.1 °F 47.1 °F 30.00 in NW 2.3 mph 11.5 mph 47 % 0.00 in 856.0 W/m2 CLR
10:36 68.9 °F 48.9 °F 30.00 in WSW 3.3 mph 10.4 mph 49 % 0.00 in 870.0 W/m2 CLR
10:41 68.8 °F 48.3 °F 29.99 in WSW 4.7 mph 10.4 mph 48 % 0.00 in 909.0 W/m2 CLR
10:46 68.6 °F 48.1 °F 29.99 in WSW 1.0 mph 12.7 mph 48 % 0.00 in 578.0 W/m2 CLR
10:51 69.4 °F 48.3 °F 29.99 in SW 7.8 mph 13.8 mph 47 % 0.00 in 868.0 W/m2 CLR
10:56 69.4 °F 48.3 °F 29.99 in SW 3.5 mph 13.8 mph 47 % 0.00 in 867.0 W/m2 CLR
11:01 69.8 °F 48.7 °F 29.99 in SSW 6.9 mph 13.8 mph 47 % 0.00 in 874.0 W/m2 CLR
11:06 69.9 °F 47.6 °F 29.99 in WSW 7.0 mph 12.7 mph 45 % 0.00 in 322.0 W/m2 CLR
11:11 70.0 °F 48.3 °F 29.98 in SW 1.2 mph 12.7 mph 46 % 0.00 in 909.0 W/m2 CLR
11:12 70.5 °F 48.1 °F 29.98 in SSW 3.3 mph 12.7 mph 45 % 0.00 in 918.0 W/m2 CLR
11:17 71.3 °F 47.0 °F 29.98 in West 5.2 mph 17.3 mph 42 % 0.00 in 916.0 W/m2 CLR
11:22 71.8 °F 45.5 °F 29.98 in SW 7.0 mph 17.3 mph 39 % 0.00 in 928.0 W/m2 CLR
11:27 71.8 °F 46.2 °F 29.98 in WSW 2.3 mph 13.8 mph 40 % 0.00 in 937.0 W/m2 CLR
11:32 72.7 °F 46.3 °F 29.97 in West 7.6 mph 13.8 mph 39 % 0.00 in 946.0 W/m2 CLR
11:38 72.9 °F 47.2 °F 29.97 in WSW 1.6 mph 15.0 mph 40 % 0.00 in 949.0 W/m2 CLR
11:43 73.5 °F 44.9 °F 29.97 in SW 6.4 mph 16.1 mph 36 % 0.00 in 962.0 W/m2 CLR
11:48 74.1 °F 43.9 °F 29.97 in NNW 4.6 mph 19.6 mph 34 % 0.00 in 977.0 W/m2 CLR
11:53 74.6 °F 43.6 °F 29.97 in WNW 11.2 mph 23.0 mph 33 % 0.00 in 995.0 W/m2 CLR
11:58 75.0 °F 42.3 °F 29.96 in WNW 12.1 mph 26.5 mph 31 % 0.00 in 984.0 W/m2 CLR
12:03 74.9 °F 42.2 °F 29.96 in West 15.4 mph 26.5 mph 31 % 0.00 in 997.0 W/m2 FEW
12:08 74.9 °F 42.2 °F 29.96 in West 8.9 mph 21.9 mph 31 % 0.00 in 991.0 W/m2 FEW
12:13 75.0 °F 42.3 °F 29.96 in West 3.5 mph 25.3 mph 31 % 0.00 in 1002.0 W/m2 FEW
12:18 74.9 °F 40.5 °F 29.96 in West 8.2 mph 25.3 mph 29 % 0.00 in 1013.0 W/m2 FEW
12:23 74.9 °F 41.4 °F 29.96 in WNW 8.6 mph 24.2 mph 30 % 0.00 in 1153.0 W/m2 FEW
12:24 75.1 °F 41.5 °F 29.96 in West 13.2 mph 24.2 mph 30 % 0.00 in 1153.0 W/m2 FEW
12:29 75.1 °F 39.8 °F 29.96 in WNW 10.3 mph 27.6 mph 28 % 0.00 in 1007.0 W/m2 FEW
12:34 75.1 °F 39.8 °F 29.96 in NNW 16.4 mph 27.6 mph 28 % 0.00 in 1039.0 W/m2 FEW
12:39 75.5 °F 41.0 °F 29.96 in West 12.7 mph 24.2 mph 29 % 0.00 in 1014.0 W/m2 FEW
12:44 75.3 °F 39.9 °F 29.96 in WSW 6.6 mph 21.9 mph 28 % 0.00 in 1102.0 W/m2 FEW
12:49 75.6 °F 39.2 °F 29.96 in SSW 11.4 mph 25.3 mph 27 % 0.00 in 1016.0 W/m2 FEW
12:54 75.5 °F 40.1 °F 29.96 in NW 12.1 mph 25.3 mph 28 % 0.00 in 1007.0 W/m2 FEW
12:59 75.4 °F 40.0 °F 29.96 in West 11.1 mph 25.3 mph 28 % 0.00 in 1023.0 W/m2 FEW
13:04 75.5 °F 39.2 °F 29.96 in NW 11.6 mph 25.3 mph 27 % 0.00 in 1032.0 W/m2 CLR
13:09 74.5 °F 39.2 °F 29.96 in WNW 10.6 mph 24.2 mph 28 % 0.00 in 1009.0 W/m2 CLR
13:14 75.2 °F 40.7 °F 29.96 in WNW 11.7 mph 24.2 mph 29 % 0.00 in 1009.0 W/m2 CLR
13:19 75.5 °F 41.0 °F 29.96 in North 12.0 mph 24.2 mph 29 % 0.00 in 1044.0 W/m2 CLR
13:24 75.8 °F 41.3 °F 29.96 in NNW 16.6 mph 24.2 mph 29 % 0.00 in 1079.0 W/m2 CLR
13:29 75.2 °F 40.7 °F 29.96 in WNW 15.0 mph 24.2 mph 29 % 0.00 in 1072.0 W/m2 CLR
13:34 75.0 °F 41.5 °F 29.96 in WNW 13.7 mph 24.2 mph 30 % 0.00 in 1028.0 W/m2 CLR
13:39 76.0 °F 42.3 °F 29.96 in NW 7.9 mph 24.2 mph 30 % 0.00 in 1139.0 W/m2 CLR
13:44 75.6 °F 41.1 °F 29.96 in NW 11.8 mph 25.3 mph 29 % 0.00 in 343.0 W/m2 CLR
13:49 75.0 °F 42.3 °F 29.95 in North 12.6 mph 25.3 mph 31 % 0.00 in 1060.0 W/m2 CLR
13:54 75.1 °F 42.4 °F 29.95 in WNW 13.0 mph 25.3 mph 31 % 0.00 in 1079.0 W/m2 CLR
13:59 75.8 °F 43.0 °F 29.95 in WNW 7.3 mph 20.7 mph 31 % 0.00 in 1100.0 W/m2 CLR
14:04 75.8 °F 41.3 °F 29.95 in North 11.3 mph 20.7 mph 29 % 0.00 in 281.0 W/m2 FEW
14:09 75.2 °F 41.6 °F 29.95 in NW 9.2 mph 28.8 mph 30 % 0.00 in 281.0 W/m2 FEW
14:14 76.1 °F 43.3 °F 29.95 in NW 13.7 mph 28.8 mph 31 % 0.00 in 1053.0 W/m2 FEW
14:19 75.9 °F 42.2 °F 29.94 in West 7.2 mph 21.9 mph 30 % 0.00 in 988.0 W/m2 FEW
14:24 76.0 °F 44.0 °F 29.94 in WSW 9.8 mph 21.9 mph 32 % 0.00 in 1007.0 W/m2 FEW
14:29 75.8 °F 43.0 °F 29.94 in WNW 12.7 mph 21.9 mph 31 % 0.00 in 1095.0 W/m2 FEW
14:34 76.1 °F 42.4 °F 29.95 in West 14.3 mph 26.5 mph 30 % 0.00 in 283.0 W/m2 FEW
14:35 76.0 °F 42.3 °F 29.95 in NNW 14.0 mph 26.5 mph 30 % 0.00 in 274.0 W/m2 FEW
14:40 74.9 °F 42.2 °F 29.94 in WNW 7.0 mph 20.0 mph 31 % 0.00 in 272.0 W/m2 FEW
14:45 74.1 °F 42.3 °F 29.95 in NW 10.3 mph 26.5 mph 32 % 0.00 in 153.0 W/m2 FEW
14:50 72.5 °F 41.0 °F 29.95 in NNW 15.7 mph 26.5 mph 32 % 0.00 in 95.0 W/m2 FEW
14:55 70.4 °F 42.2 °F 29.96 in NW 10.7 mph 26.5 mph 36 % 0.00 in 107.0 W/m2 FEW
15:00 69.0 °F 43.0 °F 29.96 in West 7.8 mph 26.5 mph 39 % 0.00 in 216.0 W/m2 FEW
15:05 69.5 °F 46.0 °F 29.95 in WNW 1.5 mph 17.3 mph 43 % 0.00 in 979.0 W/m2 BKN
15:10 71.7 °F 46.1 °F 29.95 in NNW 5.4 mph 11.5 mph 40 % 0.00 in 879.0 W/m2 BKN
15:15 73.9 °F 44.5 °F 29.94 in WNW 15.5 mph 26.5 mph 35 % 0.00 in 860.0 W/m2 BKN
15:20 74.5 °F 43.5 °F 29.94 in NW 11.5 mph 26.5 mph 33 % 0.00 in 851.0 W/m2 BKN
15:25 74.8 °F 43.0 °F 29.94 in NNW 10.5 mph 26.5 mph 32 % 0.00 in 838.0 W/m2 BKN
15:30 74.7 °F 42.9 °F 29.94 in West 6.9 mph 19.6 mph 32 % 0.00 in 840.0 W/m2 BKN
15:35 75.3 °F 45.0 °F 29.94 in WSW 2.1 mph 18.4 mph 34 % 0.00 in 840.0 W/m2 BKN
15:40 75.3 °F 41.7 °F 29.93 in NW 10.1 mph 20.7 mph 30 % 0.00 in 824.0 W/m2 BKN
15:45 75.7 °F 44.5 °F 29.93 in NNW 6.4 mph 20.7 mph 33 % 0.00 in 796.0 W/m2 BKN
15:50 76.2 °F 43.3 °F 29.93 in NW 9.5 mph 19.6 mph 31 % 0.00 in 777.0 W/m2 BKN
15:55 75.4 °F 42.7 °F 29.93 in WNW 10.1 mph 26.5 mph 31 % 0.00 in 766.0 W/m2 BKN
16:00 76.0 °F 44.0 °F 29.93 in WNW 6.6 mph 26.5 mph 32 % 0.00 in 735.0 W/m2 BKN
16:05 75.5 °F 42.7 °F 29.92 in NW 9.0 mph 19.6 mph 31 % 0.00 in 802.0 W/m2 CLR
16:10 74.3 °F 42.5 °F 29.93 in WNW 3.3 mph 19.6 mph 32 % 0.00 in 104.0 W/m2 CLR
16:15 73.4 °F 42.5 °F 29.92 in WNW 9.7 mph 18.4 mph 33 % 0.00 in 752.0 W/m2 CLR
16:20 74.7 °F 44.5 °F 29.92 in WNW 5.8 mph 19.6 mph 34 % 0.00 in 729.0 W/m2 CLR
16:25 75.6 °F 43.7 °F 29.92 in NNW 6.0 mph 19.6 mph 32 % 0.00 in 705.0 W/m2 CLR
16:30 75.8 °F 43.8 °F 29.92 in West 6.8 mph 16.1 mph 32 % 0.00 in 710.0 W/m2 CLR
16:35 75.3 °F 42.6 °F 29.92 in NW 3.6 mph 17.3 mph 31 % 0.00 in 714.0 W/m2 CLR
16:40 75.9 °F 42.2 °F 29.92 in WNW 5.2 mph 17.3 mph 30 % 0.00 in 680.0 W/m2 CLR
16:45 76.3 °F 43.4 °F 29.92 in WNW 3.7 mph 15.0 mph 31 % 0.00 in 647.0 W/m2 CLR
16:50 74.9 °F 42.2 °F 29.92 in West 2.8 mph 13.8 mph 31 % 0.00 in 643.0 W/m2 CLR
16:55 74.4 °F 44.2 °F 29.92 in SSW 2.5 mph 13.8 mph 34 % 0.00 in 645.0 W/m2 CLR
17:00 74.3 °F 43.3 °F 29.92 in West 8.2 mph 15.0 mph 33 % 0.00 in 626.0 W/m2 CLR
17:05 74.6 °F 43.6 °F 29.92 in West 1.2 mph 15.0 mph 33 % 0.00 in 578.0 W/m2 CLR
17:10 74.6 °F 42.8 °F 29.92 in WNW 5.6 mph 15.0 mph 32 % 0.00 in 561.0 W/m2 CLR
17:15 74.7 °F 43.7 °F 29.92 in SW 7.2 mph 15.0 mph 33 % 0.00 in 563.0 W/m2 CLR
17:20 74.2 °F 44.0 °F 29.92 in WNW 0.9 mph 18.4 mph 34 % 0.00 in 98.0 W/m2 CLR
17:25 74.2 °F 44.0 °F 29.92 in NNW 1.5 mph 18.4 mph 34 % 0.00 in 533.0 W/m2 CLR
17:30 74.2 °F 44.0 °F 29.92 in WSW 0.1 mph 12.7 mph 34 % 0.00 in 376.0 W/m2 CLR
17:35 73.8 °F 44.4 °F 29.92 in SW 0.7 mph 12.7 mph 35 % 0.00 in 86.0 W/m2 CLR
17:40 73.5 °F 44.9 °F 29.92 in Calm   3.5 mph 36 % 0.00 in 485.0 W/m2 CLR
17:45 74.5 °F 44.3 °F 29.92 in WNW 1.5 mph 11.5 mph 34 % 0.00 in 468.0 W/m2 CLR
17:51 74.7 °F 42.9 °F 29.92 in West 3.3 mph 11.5 mph 32 % 0.00 in 439.0 W/m2 CLR
17:56 75.0 °F 41.5 °F 29.92 in West 6.7 mph 12.7 mph 30 % 0.00 in 415.0 W/m2 CLR
18:01 74.9 °F 39.6 °F 29.92 in NW 11.9 mph 19.6 mph 28 % 0.00 in 403.0 W/m2 SCT
18:06 75.1 °F 39.8 °F 29.92 in WNW 5.6 mph 19.6 mph 28 % 0.00 in 383.0 W/m2 SCT
18:11 75.2 °F 39.8 °F 29.92 in North 7.4 mph 19.6 mph 28 % 0.00 in 387.0 W/m2 SCT
18:16 75.2 °F 38.9 °F 29.92 in WNW 7.5 mph 19.6 mph 27 % 0.00 in 346.0 W/m2 SCT
18:27 75.1 °F 37.9 °F 29.92 in NW 5.2 mph 19.6 mph 26 % 0.00 in 309.0 W/m2 SCT
18:32 75.0 °F 38.7 °F 29.92 in NW 5.5 mph 17.3 mph 27 % 0.00 in 279.0 W/m2 SCT
18:37 74.8 °F 37.6 °F 29.92 in North 6.4 mph 17.3 mph 26 % 0.00 in 265.0 W/m2 SCT
18:42 74.5 °F 37.3 °F 29.92 in WNW 10.2 mph 17.3 mph 26 % 0.00 in 244.0 W/m2 SCT
18:47 74.4 °F 38.2 °F 29.92 in WNW 4.5 mph 17.3 mph 27 % 0.00 in 227.0 W/m2 SCT
18:52 74.4 °F 37.3 °F 29.92 in NNW 2.9 mph 16.1 mph 26 % 0.00 in 206.0 W/m2 SCT
18:57 74.3 °F 37.2 °F 29.93 in NW 7.5 mph 13.8 mph 26 % 0.00 in 186.0 W/m2 SCT
19:02 73.9 °F 36.8 °F 29.93 in WNW 8.7 mph 17.3 mph 26 % 0.00 in 163.0 W/m2 FEW
19:07 73.5 °F 37.5 °F 29.93 in NW 4.8 mph 17.3 mph 27 % 0.00 in 144.0 W/m2 FEW
19:12 73.2 °F 37.2 °F 29.93 in NNW 5.9 mph 17.3 mph 27 % 0.00 in 128.0 W/m2 FEW
19:17 73.0 °F 38.0 °F 29.93 in NW 3.2 mph 13.8 mph 28 % 0.00 in 109.0 W/m2 FEW
19:22 72.8 °F 36.9 °F 29.93 in NW 3.4 mph 13.8 mph 27 % 0.00 in 93.0 W/m2 FEW
19:27 72.6 °F 37.6 °F 29.93 in NW 7.1 mph 11.5 mph 28 % 0.00 in 77.0 W/m2 FEW
19:32 72.4 °F 37.4 °F 29.93 in NW 2.0 mph 11.5 mph 28 % 0.00 in 37.0 W/m2 FEW
19:37 72.0 °F 38.0 °F 29.93 in WNW 2.7 mph 11.5 mph 29 % 0.00 in 35.0 W/m2 FEW
19:42 71.8 °F 37.8 °F 29.93 in WNW 2.9 mph 11.5 mph 29 % 0.00 in 32.0 W/m2 FEW
19:47 71.6 °F 37.6 °F 29.93 in WNW 1.1 mph 11.5 mph 29 % 0.00 in 30.0 W/m2 FEW
19:52 71.4 °F 37.5 °F 29.94 in NW 6.7 mph 11.5 mph 29 % 0.00 in 26.0 W/m2 FEW
19:57 71.0 °F 37.1 °F 29.94 in NW 0.8 mph 10.4 mph 29 % 0.00 in 25.0 W/m2 FEW
20:03 70.6 °F 37.6 °F 29.94 in NW 0.8 mph 9.2 mph 30 % 0.00 in 21.0 W/m2 CLR
20:08 70.3 °F 37.4 °F 29.94 in Calm   8.1 mph 30 % 0.00 in 18.0 W/m2 CLR
20:13 70.0 °F 38.0 °F 29.94 in Calm   8.1 mph 31 % 0.00 in 14.0 W/m2 CLR
20:18 69.6 °F 37.6 °F 29.94 in Calm   2.3 mph 31 % 0.00 in 9.0 W/m2 CLR
20:23 69.3 °F 37.3 °F 29.94 in Calm     31 % 0.00 in 5.0 W/m2 CLR
20:28 69.0 °F 37.9 °F 29.94 in Calm     32 % 0.00 in 0.0 W/m2 CLR
20:33 68.7 °F 37.6 °F 29.94 in Calm     32 % 0.00 in 0.0 W/m2 CLR
20:38 68.3 °F 38.1 °F 29.95 in Calm     33 % 0.00 in 0.0 W/m2 CLR
20:43 67.9 °F 38.5 °F 29.95 in Calm     34 % 0.00 in 0.0 W/m2 CLR
20:48 67.5 °F 38.1 °F 29.95 in Calm     34 % 0.00 in 0.0 W/m2 CLR
20:52 67.3 °F 38.0 °F 29.95 in Calm     34 % 0.00 in 0.0 W/m2 CLR
20:57 66.9 °F 38.3 °F 29.95 in Calm     35 % 0.00 in 0.0 W/m2 CLR
21:02 66.6 °F 38.1 °F 29.95 in Calm     35 % 0.00 in 0.0 W/m2 CLR
21:07 66.4 °F 37.9 °F 29.95 in Calm     35 % 0.00 in 0.0 W/m2 CLR
21:12 66.1 °F 39.1 °F 29.96 in Calm     37 % 0.00 in 0.0 W/m2 CLR
21:17 65.7 °F 38.0 °F 29.96 in Calm     36 % 0.00 in 0.0 W/m2 CLR
21:22 65.5 °F 39.2 °F 29.96 in Calm     38 % 0.00 in 0.0 W/m2 CLR
21:27 64.7 °F 39.8 °F 29.97 in Calm     40 % 0.00 in 0.0 W/m2 CLR
21:32 64.1 °F 39.3 °F 29.97 in Calm     40 % 0.00 in 0.0 W/m2 CLR
21:35 63.7 °F 39.5 °F 29.97 in Calm     41 % 0.00 in 0.0 W/m2 CLR
21:40 63.3 °F 40.4 °F 29.98 in Calm     43 % 0.00 in 0.0 W/m2 CLR
21:45 63.0 °F 40.1 °F 29.98 in Calm     43 % 0.00 in 0.0 W/m2 CLR
21:50 62.6 °F 39.8 °F 29.98 in Calm     43 % 0.00 in 0.0 W/m2 CLR
21:55 62.4 °F 40.2 °F 29.98 in Calm     44 % 0.00 in 0.0 W/m2 CLR
22:00 62.3 °F 39.5 °F 29.99 in Calm     43 % 0.00 in 0.0 W/m2 CLR
22:05 62.3 °F 39.5 °F 29.99 in Calm     43 % 0.00 in 0.0 W/m2 CLR
22:10 62.1 °F 39.3 °F 29.99 in Calm     43 % 0.00 in 0.0 W/m2 CLR
22:16 61.9 °F 39.1 °F 29.99 in Calm     43 % 0.00 in 0.0 W/m2 CLR
22:20 61.9 °F 39.1 °F 29.99 in Calm     43 % 0.00 in 0.0 W/m2 CLR
22:26 61.8 °F 39.1 °F 30.00 in Calm     43 % 0.00 in 0.0 W/m2 CLR
22:31 61.5 °F 40.5 °F 29.99 in Calm     46 % 0.00 in 0.0 W/m2 CLR
22:36 61.1 °F 40.7 °F 29.99 in Calm     47 % 0.00 in 0.0 W/m2 CLR
22:41 60.7 °F 39.8 °F 29.99 in Calm     46 % 0.00 in 0.0 W/m2 CLR
22:46 60.5 °F 40.2 °F 29.99 in Calm     47 % 0.00 in 0.0 W/m2 CLR
22:51 60.4 °F 40.1 °F 29.99 in Calm     47 % 0.00 in 0.0 W/m2 CLR
22:56 60.2 °F 40.4 °F 29.99 in Calm     48 % 0.00 in 0.0 W/m2 CLR
23:01 60.0 °F 40.8 °F 29.99 in Calm     49 % 0.00 in 0.0 W/m2 CLR
23:06 59.9 °F 40.7 °F 29.99 in Calm     49 % 0.00 in 0.0 W/m2 CLR
23:11 59.7 °F 41.0 °F 29.99 in Calm     50 % 0.00 in 0.0 W/m2 CLR
23:16 59.6 °F 40.9 °F 30.00 in Calm     50 % 0.00 in 0.0 W/m2 CLR
23:21 59.9 °F 41.7 °F 30.00 in Calm     51 % 0.00 in 0.0 W/m2 CLR
23:26 59.4 °F 41.8 °F 30.00 in Calm     52 % 0.00 in 0.0 W/m2 CLR
23:31 58.7 °F 42.1 °F 30.00 in Calm     54 % 0.00 in 0.0 W/m2 CLR
23:36 58.1 °F 41.5 °F 30.00 in Calm     54 % 0.00 in 0.0 W/m2 CLR
23:41 58.0 °F 42.8 °F 30.00 in Calm     57 % 0.00 in 0.0 W/m2 CLR
23:46 57.4 °F 43.2 °F 30.00 in Calm     59 % 0.00 in 0.0 W/m2 CLR
23:51 56.8 °F 43.5 °F 30.00 in Calm     61 % 0.00 in 0.0 W/m2 CLR
23:56 56.5 °F 42.8 °F 30.00 in Calm     60 % 0.00 in 0.0 W/m2 CLR
Air Products Campus Weather
Compliments of Weather Underground - 3.5 mb